Regional Weather Roundup
Issued by NWS Huntsville, AL

Current Version | Previous Version | Graphics & Text | Print | Product List | Glossary On
Versions: 1 2 3 4 5 6 7 8 9 10 11 12 13 14 15 16 17 18 19 20 21 22 23 24 25 26 27 28 29 30 31 32 33 34 35 36 37 38 39 40 41 42 43 44 45 46 47 48 49 50
000
ASUS44 KHUN 230910
RWRHUN

WEATHER ROUNDUP FOR THE TENNESSEE VALLEY
NATIONAL WEATHER SERVICE HUNTSVILLE AL
300 AM CST THU JAN 23 2020

ALZ001>004-231000-
NORTHWEST ALABAMA

CITY           SKY/WX    TMP DP  RH WIND       PRES   REMARKS
SHOALS AIRPORT CLOUDY    40  27  59 CALM      30.18S
$$

ALZ005>007-016-231000-
NORTH CENTRAL ALABAMA

CITY           SKY/WX    TMP DP  RH WIND       PRES   REMARKS
DECATUR AP     CLOUDY    42  21  43 SE7       30.18F
HUNTSVILLE AP  CLOUDY    43  20  39 SE9       30.18S
HUN NWS/UAH      N/A     44  15  31 SE7         N/A
MERIDIANVILLE  CLOUDY    44  15  31 S7        30.19R
VINEMONT AP    FAIR      41  15  35 SE6       30.19S
$$

ALZ008>010-231000-
NORTHEAST ALABAMA

CITY           SKY/WX    TMP DP  RH WIND       PRES   REMARKS
ALBERTVILLE    CLOUDY    41  16  36 SE5       30.19S
FORT PAYNE     FAIR      42  15  34 E5        30.21S
SCOTTSBORO AP    N/A     37  27  65 CALM      30.22R
$$

TNZ076-096-097-231000-
SOUTHEASTERN MIDDLE TENNESSEE

CITY           SKY/WX    TMP DP  RH WIND       PRES   REMARKS
FAYETTEVILLE   CLOUDY    43  18  36 S6        30.17S
TULLAHOMA      PTCLDY    41  12  30 SE5       30.16S
WINCHESTER     MOCLDY    43  12  28 S15G23    30.17S
$$

...SURROUNDING SITES...

CITY           SKY/WX    TMP DP  RH WIND       PRES   REMARKS
ATLANTA        CLOUDY    40  17  39 E12       30.23F WCI  33
ANNISTON       MOCLDY    42  19  39 E7        30.22S
BIRMINGHAM     MOCLDY    45  17  32 SE9       30.21S
CHATTANOOGA    FAIR      36  28  73 CALM      30.24F
CORINTH        CLOUDY    37  27  65 SE3       30.17S
DALTON         FAIR      37  23  56 CALM      30.25F
GADSDEN        FAIR      40  23  50 E7        30.23F
GOLDEN TRNGL   CLOUDY    39  29  67 NW3       30.18S
HALEYVILLE     CLOUDY    40  20  44 S5        30.18F
JACKSON TN     CLOUDY    35  31  85 CALM      30.16F
MEMPHIS        LGT RAIN  38  28  67 SE7       30.13F WCI  33
NASHVILLE      CLOUDY    40  19  43 E3        30.19S
OXFORD MS      LGT RAIN  37  23  56 CALM      30.16F
ROME           FAIR      43  16  33 CALM      30.24F
SAVANNAH       CLOUDY    36  30  80 CALM      30.16S
SELMER         CLOUDY    39  19  45 SE5       30.16S
TUPELO         CLOUDY    40  26  57 CALM      30.17F
TUSCALOOSA     MOCLDY    43  28  55 NE3       30.18F
$$




USA.gov is the U.S. government's official web portal to all federal, state and local government web resources and services.